Regional Weather Roundup
Issued by NWS Wilmington, NC

Home | Current Version | Previous Version | Text Only | Print | Product List | Glossary On
Versions: 1 2 3 4 5 6 7 8 9 10 11 12 13 14 15 16 17 18 19 20 21 22 23 24 25 26 27 28
000
ASUS42 KILM 261213
RWRILM
RWRILM
REGIONAL HOURLY WEATHER ROUNDUP
NATIONAL WEATHER SERVICE WILMINGTON NC
800 AM EDT MON JUN 26 2017

NOTE: "FAIR" INDICATES FEW OR NO CLOUDS BELOW 12,000 FEET WITH NO
SIGNIFICANT WEATHER AND/OR OBSTRUCTIONS TO VISIBILITY.

...............WFO WILMINGTON COUNTY WARNING AREA...............

......COASTAL NC AND SC COUNTIES......

CITY           SKY/WX    TMP DP  RH WIND       PRES   REMARKS
WILMINGTON     CLOUDY    74  66  76 N7        30.09R
N MYRTLE BEACH CLOUDY    73  66  78 N8        30.08R
MYRTLE BEACH   PTSUNNY   73  64  73 NE12      30.09R

......INLAND NC AND SC COUNTIES.......

CITY           SKY/WX    TMP DP  RH WIND       PRES   REMARKS
LUMBERTON      PTSUNNY   74  63  68 N6        30.11R
ELIZABETHTOWN  NOT AVBL
WHITEVILLE     CLOUDY    72  64  76 CALM      30.10R
FLORENCE       MOSUNNY   74  60  61 NE9       30.11R
DARLINGTON     MOSUNNY   71  61  70 N7        30.12S
KINGSTREE      FAIR      72  63  73 N6        30.09S
HARTSVILLE     FAIR      72  55  56 NE7       30.12R
BENNETTSVILLE  FAIR      73  61  64 N5        30.11S
CONWAY         PTSUNNY   72  64  78 N5        30.09R
GEORGETOWN     CLOUDY    72  72 100 NE7       30.08R
MARION         CLOUDY    70  63  78 N6        30.11R

....................REST OF NORTH CAROLINA......................

.........EASTERN NC.........

CITY           SKY/WX    TMP DP  RH WIND       PRES   REMARKS
CAPE HATTERAS  CLOUDY    78  60  53 VRB5      30.06S
JACKSONVILLE   CLOUDY    70  61  73 N5        30.10R
MOREHEAD CITY  CLOUDY    74  66  76 N6        30.07R
KENANSVILLE    PTSUNNY   72  61  68 N7        30.11R
NEW BERN       MOSUNNY   72  62  71 VRB5      30.10R
ELIZABETH CITY SUNNY     72  66  81 NW7       30.09R

.........CENTRAL NC.........

CITY           SKY/WX    TMP DP  RH WIND       PRES   REMARKS
RALEIGH DURHAM MOSUNNY   69  60  73 CALM      30.13R
ROCKY MOUNT    SUNNY     69  60  73 CALM      30.11R
ROANOKE RAPIDS NOT AVBL
FAYETTEVILLE   MOSUNNY   76  58  53 N7        30.11R
HOFFMAN        SUNNY     69  60  72 N5        30.12R

.........WESTERN NC.........

CITY           SKY/WX    TMP DP  RH WIND       PRES   REMARKS
CHARLOTTE      MOSUNNY   67  58  72 NW5       30.16R
GREENSBORO     MOSUNNY   66  54  65 NW7       30.14R
HICKORY        NOT AVBL
BOONE          NOT AVBL
ASHEVILLE      NOT AVBL

.....................REST OF SOUTH CAROLINA.....................

.........EASTERN SC.........

CITY           SKY/WX    TMP DP  RH WIND       PRES   REMARKS
CHARLESTON     PTSUNNY   75  72  90 N7        30.07R
BEAUFORT MCAS  CLOUDY    76  75  97 N6        30.07S
HILTON HEAD    MOSUNNY   75  75 100 N8        30.07R

.........CENTRAL SC.........

CITY           SKY/WX    TMP DP  RH WIND       PRES   REMARKS
COLUMBIA       MOSUNNY   74  61  63 NE6       30.11S
ORANGEBURG     MOSUNNY   74  64  71 NE8       30.10R
SUMTER SHAW    MOSUNNY   72  60  64 N8        30.09R

.........WESTERN SC.........

CITY           SKY/WX    TMP DP  RH WIND       PRES   REMARKS
GREENVILLE     NOT AVBL
ROCK HILL      PTSUNNY   69  61  75 N5        30.15R
ANDERSON       PTSUNNY   68  57  68 CALM      30.16R
CLEMSON        NOT AVBL
GREENWOOD      MOSUNNY   67  58  72 N6        30.16R


...................COASTAL AND OFFSHORE REPORTS..................

................LOCAL PIERS AND NC RESERVE................


STATION/POSITION TIME  SKY/WX   TEMP    WIND        PRES    VSBY
                                AIR SEA DIR/SP/G
                 (UTC)          (F)     (DEG/KT/KT) (MB)    (MI)
JOHNY MRCER PIER 1148            74 79   10/ 10/ 12 1017.8R
NC RESRV MASNBRO 1045            71        CALM     1019.0
OCEAN CREST PIER NOT AVBL
SPRINGMAID  PIER 1148                               1018.0R


................COASTAL AND OFFSHORE BUOYS................


STATION/POSITION TIME  SKY/WX   TEMP    WIND        PRES    VSBY
                                AIR SEA DIR/SP/G
                 (UTC)          (F)     (DEG/KT/KT) (MB)    (MI)
DIMNDSHOAL 41025 1150            78 79  360/ 12/ 14 1017.8R
WVE H/P(F/S)=  2/ 8 SWL H/P/D(F/S/D)=  2/130/ 8

CAPE LOOKOUT     1200            76     360/ 10/ 11 1017.9R
ONSLOW BAY 41036 NOT AVBL
ONSLOW BAY 41064 1108            78 80   30/ 12/ 17 1017.9F
ONSLOW BAY 41159 1143               80                N/A
WVE H/P(F/S)=  3/ 5

MASNBO INL 41110 1159               79                N/A
WVE H/P(F/S)=  2/ 6

WILM HARBR 41108 NOT AVBL
27SE WRITB 41037 1108            77 80   60/ 12/ 17 1017.5R
FRYING PAN 41013 1150            74 81   40/  6/  6 1017.8R
WVE H/P(F/S)=  2/ 5 SWL H/P/D(F/S/D)=  2/180/ 5

SUNST NRSH 41024 1108            75 79   40/ 12/ 14 1017.9S
CAPRS NRSH 41029 1108            81 83  360/ 10/ 16 1017.4R
EDISTO     41004 1200            79 81   40/ 12/ 14 1017.0


..........OFFSHORE BUOYS BEYOND 100 NM OFFSHORE...........
.....IN A TRIANGLE---HAT TO BERMUDA TO BAHAMAS TO HAT.....


STATION/POSITION TIME  SKY/WX   TEMP    WIND        PRES    VSBY
                                AIR SEA DIR/SP/G
                 (UTC)          (F)     (DEG/KT/KT) (MB)    (MI)
150E HAT   41001 1200            78 79  240/ 14/ 16 1017.8
W BERMUDA  41048 1200            81 81  210/ 10/ 12 1020.5
ATLANTIC S 41049 1150            81 82  140/  4/  6 1023.0R
WVE H/P(F/S)=  2/ 9 SWL H/P/D(F/S/D)=  2/120/ 9

E BAHAMAS  41046 1200            81 83  110/ 12/ 16 1020.5
NE BAHAMAS 41047 1200            82 83  150/  8/ 10 1020.8
120E CANVRL41010 1150            83 83  190/ 12/ 16 1018.1R
WVE H/P(F/S)=  3/ 8 SWL H/P/D(F/S/D)=  2/120/ 8


END




USA.gov is the U.S. government's official web portal to all federal, state and local government web resources and services.